Weather in Palyanovo

Russia / Khanty-Mansi Autonomous Okrug — Yugra     61°38′35″N   66°53′17″E
temp.,
°C
wind,
m/s
gust,
m/s
humid.,
%
clouds,
%
prec.,
mm/h
press.,
hPa
HPBL,
m
21 june, mon
mon2123:00+9n81589100 1.3 1013645
02:00+7n6129172 0.0 1017520
05:00+7n5108839 0.0 1019523
08:00+9n477992 0.0 1020534
11:00+13nne355261 0.0 10201466
14:00+16nne143834 0.0 10191924
17:00+17nnw443255 0.0 10192308
20:00+15nnw224766 0.0 101841
22 june, tue
tue2223:00+9nne226459 0.0 101917
02:00+7ne117163 0.0 101810
05:00+9nnw236756 0.0 101891
08:00+14nnw244791 0.0 1018568
11:00+17n4636100 0.0 10172402
14:00+18n4637100 0.0 10172641
17:00+17nnw5641100 0.0 10172133
20:00+14ne475438 0.0 1018649
23 june, wed
wed2323:00+8nne34836 0.1 102068
02:00+7n357940 0.0 102083
05:00+8nnw377085 0.0 1021205
08:00+13nnw574835 0.0 10201307
11:00+17nnw683697 0.0 10192146
14:00+19n5828100 0.0 10172447
17:00+20n572679 0.0 10172617
20:00+17ne354125 0.0 1016170
24 june, thu
thu2423:00+9sse377338 0.0 1017163
02:00+6s22865 0.0 101633
05:00+8sse007593 0.0 101674
08:00+14ne245498 0.0 1016553
11:00+18ne3438100 0.0 10151502
14:00+20ne2336100 0.0 10151695
17:00+21ne1336100 0.0 10141625
20:00+18sse2249100 0.0 101424
25 june, fri
fri2523:00+14s3763100 0.0 1014153
02:00+14s2668100 0.0 1013170
05:00+13s2469100 0.0 1012117
08:00+16s3459100 0.0 1012284
11:00+19sse4551100 0.0 1011585
14:00+24sse4537100 0.0 10091558
17:00+21wsw674698 0.0 1008673
20:00+16ssw4969100 0.0 1007345